Retour au catalogue

BREEZE-M DEB

LostHEO
NORAD 38631·DEBRIS·🇷🇺 Russia

Lancé Mar 14, 2008 depuis Baikonur Cosmodrome

Loading…

Prochains Passages (prochaines 24 heures)

TLE

PériméSource: Space-Track

Époque: Nov 10, 2025, 08:17 UTC

1 38631U 08011CE  25314.34527934  .00010664  00000-0  30305-1 0  9992
2 38631  49.2384 308.0818 6410555 252.2397  30.7027  3.29281374168325

Suivez BREEZE-M DEB en temps réel avec AllMySat

Download on the App Store